Weather History for Brno, Czech Republic

Change the Weather History Date:

Saturday, March 9, 2013

  Actual Average Record
Temperature  
Mean Temperature 40 °F -  
Max Temperature 44 °F 50 °F - ()
Min Temperature 37 °F 34 °F - ()
Degree Days  
Heating Degree Days 24    
Moisture  
Dew Point 36 °F    
Average Humidity 83    
Maximum Humidity 93    
Minimum Humidity 66    
Precipitation  
Precipitation 0.01 in 0.03 in - ()
Sea Level Pressure  
Sea Level Pressure 29.62 in    
Wind  
Wind Speed 8 mph ()    
Max Wind Speed 13 mph    
Max Gust Speed -    
Visibility 3.7 miles    
Events Rain    
T = Trace of Precipitation, MM = Missing Value Source: Averaged Metar Reports

Daily Weather History Graph

Daily Weather History Graph

Search for Another Location

Airport:

Trip Planner

Search our weather history database for the weather conditions in past years. The results will help you decide how hot, cold, wet, or windy it might be!

Date:

Astronomy

Mar. 09, 2013 Rise Set
Actual Time 6:19 AM CET 5:49 PM CET
Civil Twilight 5:47 AM CET 6:20 PM CET
Nautical Twilight 5:10 AM CET 6:57 PM CET
Astronomical Twilight 4:33 AM CET 7:35 PM CET
Moon 4:42 AM CET (3/9) 3:22 PM CET (3/9)
Length of Visible Light 12h 33m
Length of Day
11h 29m
Waning Crescent, 7% of the Moon is Illuminated
Mar 9
Waning Crescent
Mar 11
New
Mar 19
First Quarter
Mar 27
Full
Apr 3
Last Quarter

Hourly Weather History & Observations

Time (CET) Temp. Windchill Dew Point Humidity Pressure Visibility Wind Dir Wind Speed Gust Speed Precip Events Conditions
12:00 AM 39.2 °F 32.0 °F 37.4 °F 93% 29.62 in 2.8 mi ENE 11.5 mph - N/A   Overcast
12:30 AM 39.2 °F 33.0 °F 37.4 °F 93% 29.62 in 3.1 mi ENE 9.2 mph - N/A   Overcast
1:00 AM 40 °F - 36 °F 82% 29.67 in 3 mi ENE 6.7 mph - -   Mist
1:00 AM 39.2 °F 34.2 °F 37.4 °F 93% 29.62 in 3.1 mi NE 6.9 mph - N/A   Overcast
1:30 AM 41.0 °F 37.1 °F 37.4 °F 87% 29.62 in 3.7 mi ENE 5.8 mph - N/A   Overcast
2:00 AM 41.0 °F 36.4 °F 35.6 °F 81% 29.62 in 4.3 mi ENE 6.9 mph - N/A   Overcast
2:30 AM 39.2 °F 33.0 °F 35.6 °F 87% 29.62 in 4.3 mi ENE 9.2 mph - N/A   Overcast
3:00 AM 39.2 °F 33.0 °F 35.6 °F 87% 29.62 in 4.3 mi ENE 9.2 mph - N/A   Overcast
3:30 AM 39.2 °F 33.6 °F 35.6 °F 87% 29.62 in 4.3 mi ENE 8.1 mph - N/A   Overcast
4:00 AM 39.2 °F 34.2 °F 35.6 °F 87% 29.62 in 4.3 mi ENE 6.9 mph - N/A   Overcast
4:30 AM 39.2 °F 35.0 °F 35.6 °F 87% 29.62 in 4.3 mi ENE 5.8 mph - N/A   Overcast
5:00 AM 39.2 °F 33.0 °F 35.6 °F 87% 29.62 in 4.3 mi ENE 9.2 mph - N/A   Scattered Clouds
5:30 AM 39.2 °F 33.6 °F 35.6 °F 87% 29.62 in 3.7 mi ENE 8.1 mph - N/A   Unknown
6:00 AM 37.4 °F 32.1 °F 35.6 °F 93% 29.62 in 3.1 mi ENE 6.9 mph - N/A   Mostly Cloudy
6:30 AM 37.4 °F 31.4 °F 35.6 °F 93% 29.62 in - ENE 8.1 mph - N/A   Mostly Cloudy
7:00 AM 38 °F - 35 °F 83% 29.68 in 3 mi East 6.7 mph - -   Mist
7:00 AM 39.2 °F 33.6 °F 35.6 °F 87% 29.62 in - ENE 8.1 mph - N/A   Mostly Cloudy
7:30 AM 39.2 °F 33.6 °F 35.6 °F 87% 29.62 in 3.1 mi East 8.1 mph - N/A   Mostly Cloudy
8:00 AM 39.2 °F 33.6 °F 35.6 °F 87% 29.62 in 3.1 mi ENE 8.1 mph - N/A   Mostly Cloudy
8:30 AM 39.2 °F 33.6 °F 35.6 °F 87% 29.62 in 3.1 mi ENE 8.1 mph - N/A   Mostly Cloudy
9:00 AM 39.2 °F 34.2 °F 35.6 °F 87% 29.65 in 3.7 mi ENE 6.9 mph - N/A   Mostly Cloudy
9:30 AM 41.0 °F 37.1 °F 35.6 °F 81% 29.65 in 3.7 mi East 5.8 mph - N/A   Overcast
10:00 AM 41.0 °F 36.4 °F 35.6 °F 81% 29.65 in 3.7 mi ENE 6.9 mph - N/A   Overcast
10:30 AM 41.0 °F 39.0 °F 35.6 °F 81% 29.65 in 3.7 mi East 3.5 mph - N/A   Overcast
11:00 AM 42.8 °F 39.3 °F 35.6 °F 76% 29.65 in 4.3 mi East 5.8 mph - N/A   Overcast
11:30 AM 42.8 °F 38.6 °F 35.6 °F 76% 29.65 in 4.3 mi East 6.9 mph - N/A   Overcast
12:00 PM 42.8 °F 38.6 °F 35.6 °F 76% 29.65 in 5.0 mi East 6.9 mph - N/A   Overcast
12:30 PM 44.6 °F 39.7 °F 35.6 °F 71% 29.62 in 6.2 mi East 9.2 mph - N/A   Overcast
1:00 PM 44 °F - 36 °F 66% 29.66 in 6 mi East 8.9 mph - -   Overcast
1:00 PM 44.6 °F 40.2 °F 35.6 °F 71% 29.62 in 6.2 mi East 8.1 mph - N/A   Overcast
1:30 PM 44.6 °F 39.7 °F 35.6 °F 71% 29.62 in 6.2 mi ENE 9.2 mph - N/A   Overcast
2:00 PM 44.6 °F 39.2 °F 35.6 °F 71% 29.62 in 5.6 mi ENE 10.4 mph - N/A   Overcast
2:30 PM 44.6 °F 39.2 °F 35.6 °F 71% 29.62 in 4.3 mi East 10.4 mph - N/A   Overcast
3:00 PM 42.8 °F 37.0 °F 35.6 °F 76% 29.62 in 4.3 mi East 10.4 mph - N/A   Overcast
3:30 PM 42.8 °F 37.0 °F 35.6 °F 76% 29.59 in 4.3 mi East 10.4 mph - N/A   Overcast
4:00 PM 42.8 °F 36.6 °F 35.6 °F 76% 29.59 in 5.0 mi East 11.5 mph - N/A   Overcast
4:30 PM 42.8 °F 36.2 °F 35.6 °F 76% 29.59 in 4.3 mi ENE 12.7 mph - N/A   Overcast
5:00 PM 42.8 °F 36.6 °F 35.6 °F 76% 29.59 in 3.1 mi ENE 11.5 mph - N/A   Overcast
5:30 PM 42.8 °F 37.5 °F 35.6 °F 76% 29.59 in 3.1 mi East 9.2 mph - N/A   Overcast
5:45 PM 41.0 °F 34.7 °F 35.6 °F 81% 29.59 in - East 10.4 mph - N/A Rain Light Rain
6:00 PM 41.0 °F 35.8 °F 35.6 °F 81% 29.59 in - East 8.1 mph - N/A Rain Light Rain
6:30 PM 41.0 °F 34.7 °F 37.4 °F 87% 29.59 in - ENE 10.4 mph - N/A Rain Light Rain
7:00 PM 40 °F - 37 °F 83% 29.65 in 2 mi ENE 11.2 mph - - Rain Light Rain
7:00 PM 41.0 °F 34.7 °F 37.4 °F 87% 29.59 in 2.5 mi ENE 10.4 mph - N/A Rain Light Rain
7:30 PM 39.2 °F 32.0 °F 37.4 °F 93% 29.59 in 2.2 mi ENE 11.5 mph - N/A Rain Light Rain
8:00 PM 39.2 °F 32.5 °F 35.6 °F 87% 29.59 in 2.2 mi ENE 10.4 mph - N/A Rain Light Rain
8:30 PM 39.2 °F 32.0 °F 35.6 °F 87% 29.59 in 2.2 mi ENE 11.5 mph - N/A Rain Light Rain
9:00 PM 39.2 °F 32.0 °F 35.6 °F 87% 29.59 in 2.2 mi ENE 11.5 mph - N/A Rain Light Rain
9:30 PM 39.2 °F 32.0 °F 35.6 °F 87% 29.59 in 2.2 mi ENE 11.5 mph - N/A Rain Light Rain
10:00 PM 39.2 °F 32.5 °F 35.6 °F 87% 29.59 in 2.2 mi ENE 10.4 mph - N/A Rain Light Rain
10:30 PM 39.2 °F 33.0 °F 35.6 °F 87% 29.59 in 2.2 mi ENE 9.2 mph - N/A Rain Light Rain
11:00 PM 39.2 °F 33.0 °F 35.6 °F 87% 29.59 in 2.2 mi ENE 9.2 mph - N/A Rain Light Rain
11:30 PM 39.2 °F 33.6 °F 35.6 °F 87% 29.59 in 2.2 mi East 8.1 mph - N/A   Mostly Cloudy